Regional Weather Roundup
Issued by NWS Newport/Morehead, NC

Current Version | Previous Version | Text Only | Print | Product List | Glossary Off
Versions: 1 2 3 4 5 6 7 8 9 10 11 12 13 14 15 16 17 18 19 20 21 22 23 24 25 26 27 28 29 30 31 32 33 34 35 36 37 38 39 40 41 42 43 44 45 46 47 48 49 50

000
ASUS42 KMHX 120613
RWRMHX
WEATHER ROUNDUP FOR EASTERN NORTH CAROLINA
NATIONAL WEATHER SERVICE NEWPORT/MOREHEAD CITY NC
100 AM EST WED DEC 12 2018

NOTE: "FAIR" INDICATES FEW OR NO CLOUDS BELOW 12,000 FEET
WITH NO SIGNIFICANT WEATHER AND/OR OBSTRUCTIONS TO VISIBILITY

NCZ015>017-031-032-045>047-102-103-120700-
NORTH COAST

CITY           SKY/WX    TMP DP  RH WIND       PRES   REMARKS
EDENTON        FAIR      40  30  68 SW3       30.10S
ELIZABETH CITY FAIR      35  25  66 W9        30.08S
KITTY HAWK     FAIR      37  29  74 SW3       30.07S
MANTEO         FAIR      38  28  67 W5        30.10S

$$

NCZ045>047-081-094-103-104-120700-
CENTRAL COAST

CITY           SKY/WX    TMP DP  RH WIND       PRES   REMARKS
FRISCO         FAIR      43  32  65 W6        30.11F

$$

NCZ095-097-098-100-101-120700-
SOUTHERN COAST

CITY           SKY/WX    TMP DP  RH WIND       PRES   REMARKS
BEAUFORT       FAIR      40  28  62 W6        30.13F
CEDAR ISLAND   NOT AVBL
JACKSONVILLE   FAIR      35  28  75 W7        30.13F
PINEY ISLAND   FAIR      33  30  88 S6        30.12F
WILMINGTON     FAIR      36  30  79 SW8       30.16F


$$

NCZ011>013-027>030-043-044-078>080-089-090>093-098-120700-
COASTAL PLAIN

CITY           SKY/WX    TMP DP  RH WIND       PRES   REMARKS
AHOSKIE        FAIR      29  24  80 CALM      30.09S
CLINTON        FAIR      33  30  90 CALM      30.15F
ELIZABETHTOWN  FAIR      36  31  81 W7        30.16S
GOLDSBORO      FAIR      34  26  72 SW6       30.11F
GREENVILLE     FAIR      32  27  80 SW3       30.13S
HAVELOCK       FAIR      30  28  92 SW3       30.14F
KENANSVILLE    FAIR      32  28  86 SW7       30.14S
KINSTON        FAIR      33  27  79 SW5       30.13S
NEW BERN       FAIR      33  26  75 SW6       30.14F
RICHLANDS      FAIR      27  26  96 S5        30.14F
ROCKY MOUNT    FAIR      35  24  64 SW6       30.11F
WASHINGTON     FAIR      31  26  79 SW5       30.12S
WHITEVILLE     FAIR      37  32  82 SW3       30.17S

$$

AMZ130-135-150-152-154-156-158-170-250-252-270-ANZ085-086-088-633-658-670-120700-
MARINE OBSERVATIONS

STATION/POSITION TIME  TEMP    WIND        PRES    WAVE   SWELL
                       AIR SEA DIR/SP/G            HT/PER HT/PER
                 (UTC) (F)     (DEG/KT/KT) (MB)    (FT/S) (FT/S)
64 E VA BEACH    0550   46 53  270/ 17/ 19 1017.7    6/10   5/10
DUCK             0548   41 49  240/  9/ 12 1018.1
2 E DUCK         0600      47                N/A     4/10   2/11
10 NE DUCK       0545      52                N/A     5/10   2/11
OREGON INLET     0536   41 48  240/ 10/ 12 1018.8
13E OREGON INLT  0546      53                N/A     6/10   5/10
HATTERAS CG      0536   44 49  270/ 11/ 14 1019.1
DIAMOND BUOY     NOT AVBL
CAPE LOOKOUT     0600          270/ 14/ 18 1020.5
BEAUFORT LAB     0548          290/  3/  6 1020.8
30 SE NEW RVR IN 0508   54 68  310/ 17/ 23 1021.0
30 SE NEW RVR IN 0600      68                N/A     6/10   3/11
27 SE WRIGHTSVLE 0508   53 65  280/ 17/ 23 1021.6
5 SE WRIGHTSVLE  0508   48 55  280/ 14/ 17 1021.8
27 SE WRIGHTSVL  0508   53 65  280/ 17/ 23 1021.6
FRYING PAN BUOY  0550   55     270/ 16/ 21 1022.2    5/11   3/11
225 S CAPE HAT   0600                      1020.3
41 SE CHARLESTON 0550   56 73  280/ 16/ 21 1024.0    4/11   3/11

$$




USA.gov is the U.S. government's official web portal to all federal, state and local government web resources and services.